Weather History for Madison, SD

Change the Weather History Date:

Sunday, March 3, 2013

  Actual Average Record
Temperature  
Mean Temperature 24 °F -  
Max Temperature 32 °F 34 °F 32 °F (2011)
Min Temperature 17 °F 14 °F -11 °F (2014)
Degree Days  
Heating Degree Days 40    
Moisture  
Dew Point 25 °F    
Average Humidity 100    
Maximum Humidity 100    
Minimum Humidity 100    
Precipitation  
Precipitation 0.00 in - - ()
Sea Level Pressure  
Sea Level Pressure 29.82 in    
Wind  
Wind Speed 12 mph (SE)    
Max Wind Speed 23 mph    
Max Gust Speed 32 mph    
Visibility 10 miles    
Events Rain    
Averages and records for this station are not official NWS values.
T = Trace of Precipitation, MM = Missing Value Source: NWS Daily Summary

Daily Weather History Graph

Daily Weather History Graph

Search for Another Location

Airport:

Trip Planner

Search our weather history database for the weather conditions in past years. The results will help you decide how hot, cold, wet, or windy it might be!

Date:

Astronomy

Mar. 03, 2013 Rise Set
Actual Time 7:01 AM CST 6:19 PM CST
Civil Twilight 6:32 AM CST 6:48 PM CST
Nautical Twilight 5:59 AM CST 7:22 PM CST
Astronomical Twilight 5:25 AM CST 7:55 PM CST
Moon 12:12 AM CST (3/3) 10:03 AM CST (3/3)
Length of Visible Light 12h 16m
Length of Day
11h 18m
Waning Gibbous, 63% of the Moon is Illuminated
Mar 3
Waning Gibbous
Mar 4
Last Quarter
Mar 11
New
Mar 19
First Quarter
Mar 27
Full

Hourly Weather History & Observations

Time (CST) Temp. Windchill Dew Point Humidity Pressure Visibility Wind Dir Wind Speed Gust Speed Precip Events Conditions
12:15 AM 19.4 °F 9.5 °F 19.4 °F 100% 29.99 in 10.0 mi SE 8.1 mph - N/A   Scattered Clouds
12:35 AM 19.4 °F 9.5 °F 19.4 °F 100% 29.99 in 10.0 mi SE 8.1 mph - N/A   Scattered Clouds
12:55 AM 19.4 °F 9.5 °F 19.4 °F 100% 29.98 in 10.0 mi SSE 8.1 mph - N/A   Clear
1:15 AM 17.6 °F 8.2 °F 17.6 °F 100% 29.97 in 10.0 mi SE 6.9 mph - N/A   Clear
1:35 AM 17.6 °F 8.2 °F 17.6 °F 100% 29.97 in 10.0 mi SSE 6.9 mph - N/A   Clear
1:55 AM 17.6 °F 9.3 °F 17.6 °F 100% 29.97 in 10.0 mi SSE 5.8 mph - N/A   Clear
2:15 AM 17.6 °F 7.3 °F 17.6 °F 100% 29.96 in 10.0 mi SE 8.1 mph - N/A   Clear
2:35 AM 17.6 °F 7.3 °F 17.6 °F 100% 29.95 in 10.0 mi SE 8.1 mph - N/A   Clear
2:55 AM 17.6 °F 6.4 °F 17.6 °F 100% 29.94 in 10.0 mi SSE 9.2 mph - N/A   Clear
3:15 AM 17.6 °F 7.3 °F 17.6 °F 100% 29.93 in 10.0 mi SSE 8.1 mph - N/A   Clear
3:35 AM 17.6 °F 7.3 °F 17.6 °F 100% 29.92 in 10.0 mi SSE 8.1 mph - N/A   Clear
4:15 AM 17.6 °F 9.3 °F 17.6 °F 100% 29.92 in 10.0 mi SSE 5.8 mph - N/A   Clear
4:35 AM 17.6 °F 7.3 °F 17.6 °F 100% 29.92 in 10.0 mi SSE 8.1 mph - N/A   Clear
4:55 AM 17.6 °F 6.4 °F 17.6 °F 100% 29.92 in 10.0 mi SSE 9.2 mph - N/A   Clear
5:15 AM 17.6 °F 7.3 °F 17.6 °F 100% 29.91 in 10.0 mi SE 8.1 mph - N/A   Clear
5:35 AM 19.4 °F 7.9 °F 19.4 °F 100% 29.91 in 10.0 mi SE 10.4 mph - N/A   Mostly Cloudy
5:55 AM 19.4 °F 8.6 °F 19.4 °F 100% 29.91 in 10.0 mi SE 9.2 mph - N/A   Mostly Cloudy
6:15 AM 19.4 °F 8.6 °F 19.4 °F 100% 29.91 in 10.0 mi SSE 9.2 mph - N/A   Overcast
6:35 AM 19.4 °F 7.9 °F 19.4 °F 100% 29.90 in 10.0 mi SSE 10.4 mph - N/A   Scattered Clouds
6:55 AM 19.4 °F 7.9 °F 19.4 °F 100% 29.89 in 10.0 mi SSE 10.4 mph - N/A   Clear
7:15 AM 19.4 °F 8.6 °F 19.4 °F 100% 29.89 in 10.0 mi SSE 9.2 mph - N/A   Clear
7:35 AM 19.4 °F 8.6 °F 19.4 °F 100% 29.88 in 10.0 mi SSE 9.2 mph - N/A   Clear
7:55 AM 19.4 °F 7.9 °F 19.4 °F 100% 29.88 in 10.0 mi SE 10.4 mph - N/A   Clear
8:15 AM 21.2 °F 10.9 °F 21.2 °F 100% 29.88 in 10.0 mi SE 9.2 mph - N/A   Clear
8:35 AM 21.2 °F 8.9 °F 21.2 °F 100% 29.88 in 10.0 mi SE 12.7 mph - N/A   Clear
8:55 AM 23.0 °F 11.7 °F 23.0 °F 100% 29.88 in 10.0 mi SE 11.5 mph - N/A   Clear
9:15 AM 23.0 °F 10.6 °F 23.0 °F 100% 29.87 in 10.0 mi SE 13.8 mph - N/A   Clear
9:35 AM 24.8 °F 13.4 °F 24.8 °F 100% 29.86 in 10.0 mi SE 12.7 mph - N/A   Clear
9:55 AM 24.8 °F 12.9 °F 24.8 °F 100% 29.86 in 10.0 mi SE 13.8 mph - N/A   Clear
10:15 AM 24.8 °F 12.9 °F 24.8 °F 100% 29.86 in 10.0 mi SE 13.8 mph - N/A   Clear
10:35 AM 24.8 °F 12.4 °F 24.8 °F 100% 29.86 in 10.0 mi SE 15.0 mph - N/A   Clear
10:55 AM 26.6 °F 14.7 °F 26.6 °F 100% 29.85 in 10.0 mi SSE 15.0 mph - N/A   Clear
11:15 AM 26.6 °F 14.7 °F 26.6 °F 100% 29.84 in 10.0 mi SE 15.0 mph - N/A   Clear
11:35 AM 26.6 °F 14.7 °F 26.6 °F 100% 29.84 in 10.0 mi SSE 15.0 mph 20.7 mph N/A   Clear
11:55 AM 28.4 °F 16.6 °F 28.4 °F 100% 29.83 in 10.0 mi SSE 16.1 mph - N/A   Clear
12:15 PM 28.4 °F 16.6 °F 28.4 °F 100% 29.82 in 10.0 mi SSE 16.1 mph 23.0 mph N/A   Clear
12:35 PM 28.4 °F 16.6 °F 28.4 °F 100% 29.81 in 10.0 mi SSE 16.1 mph - N/A   Clear
12:55 PM 30.2 °F 18.5 °F 30.2 °F 100% 29.80 in 10.0 mi SE 17.3 mph - N/A   Clear
1:15 PM 30.2 °F 18.1 °F 30.2 °F 100% 29.79 in 10.0 mi SE 18.4 mph - N/A   Clear
1:35 PM 30.2 °F 17.4 °F 30.2 °F 100% 29.78 in 10.0 mi SE 20.7 mph - N/A   Clear
1:55 PM 30.2 °F 18.1 °F 30.2 °F 100% 29.77 in 10.0 mi SE 18.4 mph 24.2 mph N/A   Clear
2:15 PM 30.2 °F 17.8 °F 30.2 °F 100% 29.76 in 10.0 mi SE 19.6 mph 25.3 mph N/A   Clear
2:35 PM 30.2 °F 18.1 °F 30.2 °F 100% 29.76 in 10.0 mi SE 18.4 mph 24.2 mph N/A   Partly Cloudy
2:55 PM 30.2 °F 18.9 °F 30.2 °F 100% 29.76 in 10.0 mi SE 16.1 mph 24.2 mph N/A Rain Light Freezing Rain
3:15 PM 32.0 °F 21.2 °F 32.0 °F 100% 29.75 in 10.0 mi SE 16.1 mph 23.0 mph N/A Rain Light Rain
3:35 PM 32.0 °F 20.5 °F 32.0 °F 100% 29.75 in 10.0 mi SE 18.4 mph 27.6 mph N/A   Clear
3:55 PM 32.0 °F 20.5 °F 32.0 °F 100% 29.74 in 10.0 mi SE 18.4 mph 26.5 mph N/A   Clear
4:15 PM 32.0 °F 20.8 °F 32.0 °F 100% 29.74 in 10.0 mi SE 17.3 mph 27.6 mph N/A   Clear
4:35 PM 32.0 °F 21.2 °F 32.0 °F 100% 29.74 in 10.0 mi SE 16.1 mph 26.5 mph N/A   Partly Cloudy
4:55 PM 32.0 °F 20.5 °F 32.0 °F 100% 29.74 in 10.0 mi SE 18.4 mph 25.3 mph N/A   Clear
5:15 PM 32.0 °F 20.5 °F 32.0 °F 100% 29.73 in 10.0 mi SE 18.4 mph 25.3 mph N/A   Clear
5:35 PM 32.0 °F 19.5 °F 32.0 °F 100% 29.73 in 10.0 mi SE 21.9 mph 28.8 mph N/A   Partly Cloudy
5:55 PM 32.0 °F 19.8 °F 32.0 °F 100% 29.73 in 10.0 mi SE 20.7 mph 28.8 mph N/A   Clear
6:15 PM 32.0 °F 20.5 °F 32.0 °F 100% 29.73 in 10.0 mi SE 18.4 mph 28.8 mph N/A   Mostly Cloudy
6:35 PM 30.2 °F 18.5 °F 30.2 °F 100% 29.73 in 10.0 mi SE 17.3 mph 23.0 mph N/A   Overcast
6:55 PM 30.2 °F 17.8 °F 30.2 °F 100% 29.74 in 10.0 mi SE 19.6 mph 25.3 mph N/A   Overcast
7:15 PM 30.2 °F 18.9 °F 30.2 °F 100% 29.74 in 10.0 mi SE 16.1 mph 24.2 mph N/A   Overcast
7:35 PM 30.2 °F 18.1 °F 30.2 °F 100% 29.74 in 10.0 mi SE 18.4 mph 23.0 mph N/A   Mostly Cloudy
7:55 PM 30.2 °F 17.4 °F 30.2 °F 100% 29.74 in 10.0 mi SE 20.7 mph 28.8 mph N/A   Overcast
8:15 PM 28.4 °F 14.7 °F 28.4 °F 100% 29.74 in 10.0 mi SE 21.9 mph 28.8 mph N/A   Overcast
8:55 PM 28.4 °F 15.1 °F 28.4 °F 100% 29.73 in 10.0 mi SE 20.7 mph 27.6 mph N/A   Mostly Cloudy
9:15 PM 28.4 °F 14.4 °F 28.4 °F 100% 29.73 in 10.0 mi SE 23.0 mph 27.6 mph N/A   Overcast
9:35 PM 28.4 °F 15.1 °F 28.4 °F 100% 29.72 in 10.0 mi SE 20.7 mph 28.8 mph N/A   Overcast
9:55 PM 28.4 °F 15.1 °F 28.4 °F 100% 29.72 in 10.0 mi SE 20.7 mph 32.2 mph N/A   Overcast
10:15 PM 28.4 °F 14.7 °F 28.4 °F 100% 29.71 in 10.0 mi SE 21.9 mph 26.5 mph N/A Rain Light Freezing Rain
10:35 PM 28.4 °F 15.1 °F 28.4 °F 100% 29.71 in 10.0 mi SE 20.7 mph 31.1 mph N/A Rain Light Freezing Rain
10:55 PM 28.4 °F 15.1 °F 28.4 °F 100% 29.71 in 10.0 mi SE 20.7 mph 26.5 mph N/A   Overcast
11:15 PM 28.4 °F 14.4 °F 28.4 °F 100% 29.70 in 10.0 mi SE 23.0 mph 28.8 mph N/A   Overcast
11:35 PM 28.4 °F 14.7 °F 28.4 °F 100% 29.69 in 10.0 mi SE 21.9 mph 27.6 mph N/A   Overcast
11:55 PM 26.6 °F 13.1 °F 26.6 °F 100% 29.69 in 10.0 mi SE 19.6 mph 31.1 mph N/A   Overcast